CAPE
0 0 0 0 0 0 0 0 0 0 0 120 326 468 503 1099 992 1213 1132 1042 800 785 664 1000 1553 986 644 501 396 333 258 213 212 251 275 299 311 292 321 382 373 203 455 780 265 142 95 279 327
0 0 0 30 0 0 0 0 0 0 65 101 623 651 629 1130 1218 1216 1071 1109 857 743 663 771 1618 1059 779 761 675 622 529 447 402 389 457 557 644 760 771 728 724 542 272 824 553 380 223 125 97
0 0 0 0 0 0 48 1 0 55 148 124 429 835 990 1214 1161 1012 1136 878 741 665 837 995 1612 1202 1089 1062 1076 1012 940 913 853 868 859 865 882 849 805 708 610 612 634 590 414 488 825 634 403
0 0 0 1 0 0 33 0 0 125 116 182 343 511 694 1010 1084 1022 1096 790 697 831 1046 1038 1525 1176 1030 1051 999 973 947 937 782 555 255 191 358 487 553 606 639 580 578 662 765 838 802 682 882
0 0 0 0 0 0 0 0 0 45 102 248 535 760 774 455 758 979 911 798 851 928 886 895 1302 1143 1065 955 668 526 376 43 0 0 0 0 0 0 1 8 0 0 0 0 0 113 437 705 800
0 0 1 10 2 2 0 0 0 53 169 441 504 821 841 945 1256 1096 828 835 799 896 991 943 581 376 17 0 0 0 0 0 0 0 0 0 0 0 0 0 0 0 0 0 0 0 0 0 0
0 0 0 4 10 15 0 0 0 88 146 380 606 919 643 1073 1367 1199 1243 1221 1138 987 787 608 277 0 0 0 0 0 0 0 0 0 0 0 0 0 0 0 0 0 0 0 0 0 0 0 0
0 0 1 6 2 6 0 0 0 0 58 364 556 710 708 997 250 1157 1076 904 599 338 17 0 0 0 0 0 0 0 0 0 0 0 0 0 0 0 0 0 0 0 0 0 0 0 0 0 0
0 0 0 17 10 9 0 0 0 0 78 227 188 312 892 162 0 26 197 257 37 0 0 0 0 0 0 0 0 0 0 0 0 0 0 0 0 0 0 0 0 0 0 0 0 0 0 0 0
0 0 0 3 36 1 0 0 0 0 14 14 48 15 303 13 0 0 0 69 76 0 0 0 0 0 0 0 0 0 0 0 0 0 0 0 0 0 0 0 0 0 0 0 0 0 0 0 0
0 0 0 0 1 0 0 0 0 0 0 1 86 110 285 37 1 84 509 276 59 0 0 0 0 0 0 0 0 0 0 0 0 0 0 0 0 0 0 0 0 0 0 0 0 0 0 0 0
3 0 0 0 0 0 0 0 0 0 0 0 0 88 340 198 223 662 492 216 7 0 0 0 0 0 0 0 0 0 0 0 0 0 0 0 0 0 0 0 0 0 0 0 0 0 0 0 0
0 0 0 0 0 0 0 0 0 0 0 0 0 6 424 639 717 506 603 152 0 0 0 0 0 0 0 0 0 0 0 0 0 0 0 0 0 0 0 0 0 0 0 0 0 0 0 0 0
0 0 0 0 0 0 0 0 0 0 0 0 0 0 180 479 445 470 197 1 0 0 0 0 0 0 0 0 0 0 0 0 0 0 0 0 0 0 0 0 0 0 0 0 0 0 0 0 0
0 0 0 0 0 0 0 0 0 0 0 0 0 0 194 425 349 130 1 0 0 0 0 0 0 0 0 0 0 0 0 0 0 0 0 0 0 0 0 0 0 0 0 0 0 0 0 0 0
0 0 0 0 0 0 0 0 0 0 0 0 0 18 154 135 22 0 0 0 0 0 0 0 0 0 0 0 0 0 0 0 0 0 0 0 0 0 0 0 0 0 0 0 0 0 0 0 0
0 0 0 0 0 0 0 0 0 0 0 0 0 0 0 0 0 0 0 0 0 0 0 0 0 0 0 0 0 0 0 0 0 0 0 0 0 0 0 0 0 0 0 0 0 0 0 2 3
0 0 0 0 0 0 0 0 0 0 0 0 0 0 0 0 0 0 0 0 0 0 0 0 0 0 0 0 0 0 0 0 0 0 0 0 0 0 0 0 0 0 0 0 0 0 0 1 0
0 0 0 0 0 0 0 0 0 0 0 0 0 0 0 0 0 0 0 0 0 0 0 0 0 0 0 0 0 0 0 0 0 0 0 0 0 0 0 0 0 0 0 0 0 0 2 3 3
0 0 0 0 0 0 0 0 0 0 0 0 0 0 0 0 0 0 0 0 0 0 0 0 0 0 0 0 0 0 0 0 0 0 0 0 0 0 0 0 0 0 0 0 0 0 3 6 2
0 0 0 0 0 0 0 0 0 0 0 0 0 0 0 0 0 0 0 0 0 0 0 0 0 0 0 0 0 0 0 0 0 0 0 0 0 0 0 0 0 0 0 0 0 0 1 3 0
0 0 0 0 0 0 0 0 0 0 0 0 0 0 0 0 0 0 0 0 0 0 0 0 0 0 0 0 0 0 0 0 0 0 0 0 0 0 0 0 0 0 0 0 0 0 0 3 0
0 0 0 0 0 0 0 0 0 0 0 0 0 0 0 0 0 0 0 0 0 0 0 0 0 0 0 0 0 0 0 0 0 0 0 0 0 0 0 0 0 0 0 0 0 0 0 3 2
0 0 0 0 0 116 0 0 0 0 0 0 0 0 0 0 0 0 0 0 0 0 0 0 0 0 0 0 0 0 0 0 0 0 0 0 0 0 0 0 0 0 0 0 0 0 0 1 3
0 0 0 12 220 0 0 0 0 0 0 0 0 0 0 0 0 0 0 0 0 0 0 0 0 0 0 0 0 0 0 0 0 0 0 0 0 0 0 0 0 0 0 0 0 0 0 0 2
0 0 2 0 0 0 0 0 0 0 0 0 0 0 0 0 0 0 0 0 0 0 0 0 0 0 0 0 0 0 0 0 0 0 0 0 0 0 0 0 0 0 0 0 0 0 0 0 1
0 0 0 0 0 0 0 0 0 0 0 0 0 0 0 0 0 0 0 0 0 0 0 0 0 0 0 0 0 0 0 0 0 0 0 0 0 0 0 0 0 0 0 0 0 0 0 0 0
0 0 0 0 0 0 0 0 196 0 0 0 0 0 0 0 0 0 0 0 0 0 0 0 0 0 0 0 0 0 0 0 0 0 0 0 0 0 0 0 0 0 0 0 0 0 0 0 0
0 0 0 0 0 0 0 0 0 0 0 0 0 0 0 0 0 0 0 0 0 0 0 0 0 0 0 0 0 0 0 0 0 0 0 0 0 0 0 0 0 0 0 0 0 0 0 0 0
0 0 0 0 0 0 0 0 0 0 0 0 0 0 0 0 0 0 0 0 0 0 0 0 0 0 0 0 0 0 0 0 0 0 0 0 0 0 0 0 0 0 0 0 0 0 0 0 0
CIN
-0 -0 -0 -0 -0 -0 -0 -0 -0 -0 -0 -115 -27 -18 -3 -25 -6 -4 -30 -6 -8 -1 -21 -0 -0 -0 -4 -11 -21 -41 -71 -100 -98 -68 -62 -61 -52 -60 -59 -37 -32 -133 -22 -1 -78 -183 -246 -65 -36
-0 -0 -0 -6 -0 -0 -0 -0 -0 -0 -133 -157 -70 -42 -20 -22 -67 -71 -40 -15 -4 -2 -6 -2 -0 -0 -0 -0 -0 -0 -3 -12 -24 -25 -17 -10 -4 -0 -0 -3 -4 -22 -95 -1 -10 -34 -79 -172 -211
-0 -0 -0 -0 -0 -0 -16 -7 -0 -120 -143 -138 -73 -66 -34 -34 -47 -56 -32 -30 -25 -7 -3 -13 -0 -0 -0 -0 -0 -0 -0 -0 -0 -0 -0 -0 -0 -0 -0 -3 -18 -14 -16 -22 -39 -26 -0 -2 -16
-0 -0 -0 -0 -0 -0 -14 -0 -0 -113 -180 -136 -92 -49 -121 -66 -37 -53 -37 -41 -33 -8 -1 -12 -0 -0 -1 -0 -0 -0 -0 -0 -0 -10 -73 -104 -47 -33 -20 -11 -7 -13 -7 -1 -0 -0 -0 -2 -0
-0 -0 -3 -0 -0 -0 -0 -0 -0 -109 -123 -116 -75 -51 -92 -160 -105 -49 -42 -44 -13 -10 -3 -0 -0 -0 -0 -0 -18 -18 -31 -148 -0 -0 -0 -0 -0 -0 -317 -267 -0 -0 -0 -0 -0 -98 -24 -0 -0
-0 -0 -0 -0 -0 -0 -0 -0 -0 -99 -102 -91 -77 -54 -81 -97 -41 -36 -53 -39 -20 -15 -10 -4 -67 -115 -160 -0 -0 -0 -0 -0 -0 -0 -0 -0 -0 -0 -0 -0 -0 -0 -0 -0 -0 -0 -0 -0 -0
-0 -0 -0 -0 -0 -2 -0 -0 -0 -91 -102 -79 -58 -14 -117 -65 -36 -34 -31 -19 -11 -19 -27 -36 -104 -0 -0 -0 -0 -0 -0 -0 -0 -0 -0 -0 -0 -0 -0 -0 -0 -0 -0 -0 -0 -0 -0 -0 -0
-0 -0 -0 -6 -1 -1 -0 -0 -0 -0 -108 -163 -77 -6 -72 -94 -253 -57 -40 -37 -50 -95 -253 -0 -0 -0 -0 -0 -0 -0 -0 -0 -0 -0 -0 -0 -0 -0 -0 -0 -0 -0 -0 -0 -0 -0 -0 -0 -0
-0 -0 -0 -0 -4 -0 -0 -0 -0 -0 -218 -137 -182 -127 -88 -378 -0 -257 -187 -136 -259 -0 -0 -0 -0 -0 -0 -0 -0 -0 -0 -0 -0 -0 -0 -0 -0 -0 -0 -0 -0 -0 -0 -0 -0 -0 -0 -0 -0
-0 -0 -0 -0 -0 -5 -0 -0 -0 -0 -107 -222 -255 -99 -270 -314 -0 -0 -0 -223 -195 -0 -0 -0 -0 -0 -0 -0 -0 -0 -0 -0 -0 -0 -0 -0 -0 -0 -0 -0 -0 -0 -0 -0 -0 -0 -0 -0 -0
-0 -0 -0 -0 -0 -0 -0 -0 -0 -0 -0 -21 -132 -207 -229 -384 -317 -253 -58 -106 -217 -0 -0 -0 -0 -0 -0 -0 -0 -0 -0 -0 -0 -0 -0 -0 -0 -0 -0 -0 -0 -0 -0 -0 -0 -0 -0 -0 -0
-0 -0 -0 -0 -0 -0 -0 -0 -0 -0 -0 -0 -0 -214 -167 -235 -195 -64 -64 -113 -222 -0 -0 -0 -0 -0 -0 -0 -0 -0 -0 -0 -0 -0 -0 -0 -0 -0 -0 -0 -0 -0 -0 -0 -0 -0 -0 -0 -0
-0 -0 -0 -0 -0 -0 -0 -0 -0 -0 -0 -0 -0 -94 -135 -108 -72 -82 -47 -138 -0 -0 -0 -0 -0 -0 -0 -0 -0 -0 -0 -0 -0 -0 -0 -0 -0 -0 -0 -0 -0 -0 -0 -0 -0 -0 -0 -0 -0
-0 -0 -0 -0 -0 -0 -0 -0 -0 -0 -0 -0 -0 -0 -165 -94 -82 -74 -132 -147 -0 -0 -0 -0 -0 -0 -0 -0 -0 -0 -0 -0 -0 -0 -0 -0 -0 -0 -0 -0 -0 -0 -0 -0 -0 -0 -0 -0 -0
-0 -0 -0 -0 -0 -0 -0 -0 -0 -0 -0 -0 -0 -0 -146 -84 -77 -140 -111 -0 -0 -0 -0 -0 -0 -0 -0 -0 -0 -0 -0 -0 -0 -0 -0 -0 -0 -0 -0 -0 -0 -0 -0 -0 -0 -0 -0 -0 -0
-0 -0 -0 -0 -0 -0 -0 -0 -0 -0 -0 -0 -0 -180 -153 -160 -166 -0 -0 -0 -0 -0 -0 -0 -0 -0 -0 -0 -0 -0 -0 -0 -0 -0 -0 -0 -0 -0 -0 -0 -0 -0 -0 -0 -0 -0 -0 -0 -0
-0 -0 -0 -0 -0 -0 -0 -0 -0 -0 -0 -0 -0 -0 -0 -0 -0 -0 -0 -0 -0 -0 -0 -0 -0 -0 -0 -0 -0 -0 -0 -0 -0 -0 -0 -0 -0 -0 -0 -0 -0 -0 -0 -0 -0 -0 -0 -0 -0
-0 -0 -0 -0 -0 -0 -0 -0 -0 -0 -0 -0 -0 -0 -0 -0 -0 -0 -0 -0 -0 -0 -0 -0 -0 -0 -0 -0 -0 -0 -0 -0 -0 -0 -0 -0 -0 -0 -0 -0 -0 -0 -0 -0 -0 -0 -0 -0 -0
-0 -0 -0 -0 -0 -0 -0 -0 -0 -0 -0 -0 -0 -0 -0 -0 -0 -0 -0 -0 -0 -0 -0 -0 -0 -0 -0 -0 -0 -0 -0 -0 -0 -0 -0 -0 -0 -0 -0 -0 -0 -0 -0 -0 -0 -0 -0 -0 -0
-0 -0 -0 -0 -0 -0 -0 -0 -0 -0 -0 -0 -0 -0 -0 -0 -0 -0 -0 -0 -0 -0 -0 -0 -0 -0 -0 -0 -0 -0 -0 -0 -0 -0 -0 -0 -0 -0 -0 -0 -0 -0 -0 -0 -0 -0 -0 -0 -1
-0 -0 -0 -0 -0 -0 -0 -0 -0 -0 -0 -0 -0 -0 -0 -0 -0 -0 -0 -0 -0 -0 -0 -0 -0 -0 -0 -0 -0 -0 -0 -0 -0 -0 -0 -0 -0 -0 -0 -0 -0 -0 -0 -0 -0 -0 -0 -0 -0
-0 -0 -0 -0 -0 -0 -0 -0 -0 -0 -0 -0 -0 -0 -0 -0 -0 -0 -0 -0 -0 -0 -0 -0 -0 -0 -0 -0 -0 -0 -0 -0 -0 -0 -0 -0 -0 -0 -0 -0 -0 -0 -0 -0 -0 -0 -0 -0 -0
-0 -0 -0 -0 -0 -0 -0 -0 -0 -0 -0 -0 -0 -0 -0 -0 -0 -0 -0 -0 -0 -0 -0 -0 -0 -0 -0 -0 -0 -0 -0 -0 -0 -0 -0 -0 -0 -0 -0 -0 -0 -0 -0 -0 -0 -0 -0 -0 -0
-0 -0 -0 -0 -0 -41 -0 -0 -0 -0 -0 -0 -0 -0 -0 -0 -0 -0 -0 -0 -0 -0 -0 -0 -0 -0 -0 -0 -0 -0 -0 -0 -0 -0 -0 -0 -0 -0 -0 -0 -0 -0 -0 -0 -0 -0 -0 -0 -0
-0 -0 -0 -24 -4 -0 -0 -0 -0 -0 -0 -0 -0 -0 -0 -0 -0 -0 -0 -0 -0 -0 -0 -0 -0 -0 -0 -0 -0 -0 -0 -0 -0 -0 -0 -0 -0 -0 -0 -0 -0 -0 -0 -0 -0 -0 -0 -0 -0
-0 -0 -7 -0 -0 -0 -0 -0 -0 -0 -0 -0 -0 -0 -0 -0 -0 -0 -0 -0 -0 -0 -0 -0 -0 -0 -0 -0 -0 -0 -0 -0 -0 -0 -0 -0 -0 -0 -0 -0 -0 -0 -0 -0 -0 -0 -0 -0 -0
-0 -0 -0 -0 -0 -0 -0 -0 -0 -0 -0 -0 -0 -0 -0 -0 -0 -0 -0 -0 -0 -0 -0 -0 -0 -0 -0 -0 -0 -0 -0 -0 -0 -0 -0 -0 -0 -0 -0 -0 -0 -0 -0 -0 -0 -0 -0 -0 -0
-0 -0 -0 -0 -4 -0 -0 -0 -57 -0 -0 -0 -0 -0 -0 -0 -0 -0 -0 -0 -0 -0 -0 -0 -0 -0 -0 -0 -0 -0 -0 -0 -0 -0 -0 -0 -0 -0 -0 -0 -0 -0 -0 -0 -0 -0 -0 -0 -0
-0 -0 -0 -0 -0 -0 -0 -0 -0 -0 -0 -0 -0 -0 -0 -0 -0 -0 -0 -0 -0 -0 -0 -0 -0 -0 -0 -0 -0 -0 -0 -0 -0 -0 -0 -0 -0 -0 -0 -0 -0 -0 -0 -0 -0 -0 -0 -0 -0
-0 -0 -0 -0 -0 -0 -0 -0 -0 -0 -0 -0 -0 -0 -0 -0 -0 -0 -0 -0 -0 -0 -0 -0 -0 -0 -0 -0 -0 -0 -0 -0 -0 -0 -0 -0 -0 -0 -0 -0 -0 -0 -0 -0 -0 -0 -0 -0 -0
Wind_Speed
10 11 5 3 6 7 13 10 3 7 7 4 5 3 7 13 9 5 9 9 15 15 15 13 11 11 10 9 7 7 6 6 5 5 4 4 5 6 6 6 7 7 7 4 2 3 4 4 3
8 9 5 7 9 12 12 10 8 6 9 6 5 3 1 10 10 12 9 12 13 13 13 13 12 11 9 8 6 6 5 4 4 3 4 5 5 6 6 5 6 7 8 7 5 5 5 5 5
7 13 7 7 11 15 12 15 8 7 7 7 5 4 4 5 12 6 12 13 11 11 12 13 11 11 9 8 6 5 4 3 3 4 5 6 7 7 7 6 6 7 7 7 7 8 9 8 7
7 2 7 13 17 20 16 9 11 11 6 4 1 7 5 7 6 9 14 12 12 11 11 11 9 9 8 6 5 6 6 8 7 7 8 8 8 8 7 7 7 8 8 8 9 10 10 10 10
8 4 9 14 21 18 7 3 11 11 10 10 6 6 5 5 5 10 14 10 10 11 11 11 10 11 10 9 9 7 7 8 9 9 9 10 10 10 10 9 10 10 10 10 11 11 11 11 11
9 12 12 19 21 18 12 6 11 9 7 8 6 9 7 9 5 5 12 9 7 11 10 12 11 12 11 10 9 8 9 9 9 9 8 8 8 8 8 8 8 9 8 9 9 10 11 11 11
15 16 19 23 18 16 13 8 11 9 8 7 3 9 7 11 4 7 8 10 11 8 9 9 10 11 12 10 9 9 9 8 8 8 7 6 4 5 6 6 7 9 10 10 10 10 11 11 11
10 14 24 21 17 18 16 11 3 9 8 6 1 6 7 12 5 6 8 10 9 8 7 6 6 5 6 8 7 8 7 6 4 3 4 6 7 3 2 5 10 10 10 10 11 11 12 12 13
4 11 18 25 21 22 14 13 4 4 6 3 4 6 11 19 9 9 8 9 8 7 6 5 4 4 3 4 5 7 6 4 5 3 2 8 5 7 9 7 5 9 9 11 10 11 13 14 15
10 10 23 20 16 19 16 13 10 7 8 6 8 6 16 15 12 11 8 9 9 8 6 4 4 3 3 2 3 3 3 4 5 6 7 6 7 6 6 6 6 8 7 12 10 10 13 13 8
10 13 13 13 15 16 15 13 11 9 11 9 12 12 15 14 11 10 12 11 9 8 5 4 3 3 2 2 2 2 2 3 3 6 7 7 6 5 5 5 5 7 4 6 7 8 7 9 8
14 2 7 7 2 9 15 12 9 11 5 8 4 14 15 16 14 13 11 9 8 8 6 5 3 3 3 1 2 3 3 4 4 5 7 6 5 6 6 5 7 6 6 9 8 6 9 10 10
14 7 3 7 8 10 11 11 10 9 4 4 6 13 15 16 16 14 12 9 9 8 7 6 4 3 2 2 2 2 3 3 4 4 5 5 5 6 6 6 6 6 7 7 8 8 8 9 10
8 8 11 10 10 8 12 10 11 6 6 8 9 11 13 14 15 12 10 9 8 7 7 6 5 4 2 1 3 3 3 3 3 3 4 5 5 5 6 6 6 6 7 7 8 8 8 8 9
14 14 11 9 10 6 11 9 7 9 8 9 10 10 12 13 12 11 10 8 8 6 7 7 6 5 4 3 1 2 1 1 2 2 4 5 5 6 6 5 6 6 7 9 8 9 9 8 8
12 14 12 7 7 4 4 13 10 8 10 11 10 11 11 11 10 8 8 7 6 5 6 7 6 6 4 2 1 1 1 0 0 1 3 4 4 5 6 5 6 6 6 6 7 7 8 8 8
12 15 14 8 1 7 8 16 10 7 9 11 11 11 10 10 9 7 6 7 8 8 8 8 8 7 5 4 2 1 1 2 0 1 2 3 4 5 6 5 6 7 5 6 7 7 8 8 7
14 18 15 12 4 9 8 9 10 7 8 10 11 10 10 9 9 8 7 6 7 8 8 8 7 7 7 4 3 2 2 2 2 2 2 3 3 5 5 5 5 5 5 5 5 8 8 9 8
6 15 17 11 2 9 11 9 10 8 6 8 9 10 10 8 6 3 5 6 7 8 8 9 9 8 6 5 4 2 3 3 3 3 4 4 4 4 6 4 5 5 6 6 6 6 8 7 7
4 17 14 5 2 5 8 8 8 7 7 6 8 9 8 6 5 3 4 7 8 7 8 9 9 9 6 3 1 1 1 3 3 3 4 5 5 5 6 5 5 5 5 6 6 5 5 6 5
2 10 12 10 7 3 6 8 9 6 5 4 5 3 1 4 3 1 0 3 5 7 8 9 9 8 6 4 3 3 3 3 4 5 4 5 6 7 6 7 6 6 5 5 5 4 4 5 5
7 7 1 12 10 5 2 5 12 10 9 7 7 7 6 5 4 3 2 2 4 5 5 7 7 7 6 5 4 6 5 5 4 3 5 5 8 8 7 7 7 6 5 6 5 3 3 4 5
5 3 2 4 5 3 3 2 7 5 9 9 7 7 5 4 2 3 3 3 2 4 5 6 7 7 6 5 5 4 5 5 4 5 8 8 7 7 8 8 8 7 5 5 5 5 5 3 4
2 2 3 2 2 0 3 3 6 5 7 11 7 7 6 5 3 3 3 3 4 4 5 5 6 6 5 5 5 6 7 7 6 7 6 6 5 4 6 7 7 7 7 6 5 5 6 5 5
3 2 2 1 2 1 1 2 2 4 3 7 8 5 6 5 5 4 5 4 4 5 5 5 5 5 4 4 5 6 7 8 9 8 6 7 5 5 5 5 6 6 7 7 6 6 6 6 6
5 5 3 2 3 3 2 3 2 2 4 2 3 3 4 5 4 4 3 4 4 3 4 3 3 3 3 4 4 4 5 4 5 6 5 5 5 5 6 6 7 8 8 8 7 6 6 6 5
5 1 3 2 1 2 2 2 6 5 6 5 5 6 7 7 6 6 5 3 3 3 2 1 2 2 1 1 2 3 4 5 6 7 7 5 7 6 6 7 8 8 8 9 8 7 8 7 7
2 2 2 1 1 2 3 3 4 5 10 9 8 8 8 7 6 5 4 3 2 2 3 3 2 2 2 3 5 5 6 7 7 7 8 8 8 8 8 8 8 8 8 8 9 8 8 8 7
1 2 1 3 3 3 2 2 2 3 4 9 8 8 7 7 7 5 3 2 2 2 2 2 2 2 3 4 5 6 6 7 8 8 8 8 8 8 9 9 9 8 8 8 8 9 10 10 9
4 5 5 3 2 1 3 5 4 3 1 3 5 6 6 6 5 5 5 5 5 4 3 2 1 1 3 4 6 7 8 8 8 9 9 9 9 9 9 9 9 9 9 9 9 10 9 10 11
Wind_Direction
264 258 268 256 236 230 226 217 53 168 172 55 106 343 44 26 5 33 151 112 132 133 126 146 135 133 128 122 115 106 97 91 79 62 44 19 7 360 359 6 10 7 357 298 325 343 343 338 330
259 250 239 225 244 209 214 196 199 158 81 139 110 128 180 78 65 112 130 133 144 130 146 134 139 136 130 124 116 103 95 89 75 44 15 350 342 333 333 349 358 357 358 6 322 304 305 308 308
226 271 232 211 223 230 218 183 182 111 136 158 125 357 19 69 121 106 124 129 132 132 102 115 133 138 136 129 119 96 69 72 58 34 22 20 19 21 25 16 1 346 340 336 325 317 298 284 285
162 276 253 230 209 225 223 164 132 144 136 176 154 123 94 349 130 118 131 135 121 119 108 111 116 123 118 112 105 86 72 70 62 42 29 18 11 9 10 7 2 356 349 334 322 307 295 292 286
185 197 244 215 219 202 195 75 171 172 144 159 188 119 92 126 74 141 137 135 134 126 121 121 112 109 103 89 78 72 63 54 49 43 36 27 22 18 15 12 9 5 3 360 352 343 340 332 308
187 206 187 220 214 204 177 193 190 167 142 118 177 132 112 105 154 125 131 125 110 110 108 114 92 92 89 85 79 74 67 59 51 45 38 28 22 20 16 12 10 2 356 350 344 339 338 338 337
223 201 204 209 206 192 192 186 185 164 164 161 76 162 107 142 98 135 91 99 89 100 121 132 127 110 95 84 80 75 71 64 54 43 28 11 5 13 358 355 5 352 343 338 334 330 328 326 323
215 229 216 207 203 194 191 176 159 177 137 75 295 162 166 144 100 104 132 127 125 111 115 115 130 133 139 114 87 89 78 72 70 61 13 308 270 226 225 284 18 342 335 331 327 322 317 313 306
217 226 218 196 201 195 150 181 189 55 119 166 128 33 75 119 114 112 117 131 132 125 120 121 113 96 89 69 121 156 139 190 206 206 216 294 329 330 345 68 348 319 320 316 309 308 305 295 280
219 218 203 219 185 198 171 187 151 168 155 174 156 121 120 128 137 134 160 155 156 146 138 134 120 92 78 62 25 45 21 1 360 356 347 340 342 358 298 282 239 259 262 276 262 277 272 268 295
200 211 216 177 212 192 171 194 161 203 190 194 193 155 144 143 149 163 175 173 164 151 147 145 131 95 52 49 332 29 11 1 353 1 354 341 337 350 336 327 338 330 266 330 319 319 318 317 307
191 303 178 146 263 172 169 151 184 203 59 41 51 150 156 161 168 184 175 176 157 163 155 150 141 123 68 14 18 15 17 343 8 359 0 348 350 343 343 336 332 329 330 326 325 320 313 313 307
220 149 160 153 195 186 157 174 157 167 90 132 160 154 168 169 178 179 178 170 171 175 168 168 159 140 107 5 22 12 11 29 5 13 360 353 347 343 336 336 333 333 333 326 325 319 318 312 314
165 156 145 169 154 154 171 141 162 130 136 124 146 166 170 179 179 170 170 181 180 182 180 167 176 159 136 91 14 16 1 16 21 9 2 353 354 345 337 328 338 331 339 331 325 321 316 314 311
145 140 138 150 165 149 163 155 184 129 148 137 151 160 168 178 178 180 182 193 199 191 185 186 179 175 172 123 38 354 32 345 51 351 6 1 360 343 329 330 330 345 336 324 324 322 320 317 316
173 155 154 143 185 168 237 167 131 152 157 153 155 159 166 174 186 195 188 202 206 218 198 187 177 183 166 156 195 245 208 308 60 23 347 351 347 337 328 331 337 340 326 324 325 327 324 321 318
180 174 166 151 238 158 223 150 153 164 183 164 171 173 177 177 193 205 210 222 218 214 205 191 193 184 180 173 208 233 227 248 197 286 296 338 326 337 330 332 334 340 329 322 343 338 324 321 321
178 174 154 153 143 195 197 103 151 163 194 183 183 183 186 192 201 200 206 219 231 219 219 201 189 194 181 182 205 209 215 227 258 276 288 300 310 318 322 319 330 330 325 333 343 334 329 313 350
260 159 166 108 117 202 191 147 166 166 194 207 197 196 196 205 191 168 224 231 229 227 222 214 189 193 187 201 216 210 235 211 239 242 265 289 309 304 299 305 313 321 321 324 335 332 328 327 340
262 162 131 110 112 243 176 188 161 179 199 210 217 210 211 211 207 202 253 238 220 219 213 209 201 186 202 207 199 293 251 254 276 281 266 270 278 287 281 299 306 309 312 315 327 345 333 317 335
13 165 167 142 146 76 165 197 182 177 200 174 206 250 298 245 219 142 253 215 204 206 206 204 198 187 193 200 187 216 232 253 252 238 245 257 261 272 272 279 280 291 294 300 313 340 334 313 312
127 15 158 137 178 145 252 186 191 170 180 199 184 182 159 160 151 112 72 123 188 182 185 195 181 187 194 198 227 239 261 281 294 299 292 288 277 274 273 270 276 279 283 288 299 314 296 300 307
72 343 73 160 111 135 135 270 118 183 196 184 172 147 157 143 127 115 90 81 95 152 173 180 181 195 200 215 245 264 267 285 289 282 283 280 276 266 268 267 270 268 269 274 289 296 287 275 284
32 253 171 146 147 261 53 327 155 178 210 171 158 162 156 152 139 129 126 159 141 150 164 180 190 209 216 227 235 249 268 279 286 289 293 291 287 273 261 248 257 265 266 268 267 276 270 264 264
355 273 131 97 19 51 82 226 332 151 158 178 172 163 166 161 174 173 175 171 160 171 176 194 205 215 218 228 241 252 261 273 282 289 291 296 292 288 283 265 253 258 252 256 261 262 262 252 250
4 339 337 202 166 123 175 227 123 139 129 190 193 187 165 184 182 187 178 175 169 178 185 197 221 233 232 248 265 279 279 280 288 290 291 289 289 287 289 280 271 264 265 262 257 257 256 255 247
22 283 354 95 88 255 100 246 200 170 201 209 195 187 195 197 190 180 169 175 164 166 134 172 192 191 174 302 274 276 291 291 295 297 294 292 291 286 284 282 275 269 263 256 256 254 256 254 248
345 0 241 208 40 278 173 261 258 246 218 201 200 207 199 193 187 181 185 171 140 116 116 109 82 54 348 347 326 322 311 306 303 297 295 295 295 293 291 283 275 269 263 259 253 254 257 258 255
145 246 274 310 339 309 313 98 73 189 225 201 209 210 198 194 199 200 195 169 150 123 119 89 57 2 349 340 321 313 308 305 302 299 300 303 308 298 293 292 287 278 273 266 257 254 256 254 253
299 307 301 298 118 25 343 270 46 46 33 229 217 203 201 206 201 205 203 190 184 180 165 167 159 308 319 317 317 314 312 310 310 310 311 309 305 302 297 293 287 286 281 274 269 266 257 253 253